Regional Weather Roundup
Issued by NWS Sioux Falls, SD

Home | Current Version | Previous Version | Text Only | Print | Product List | Glossary Off
Versions: 1 2 3 4 5 6 7 8 9 10 11 12 13 14 15 16 17 18 19 20 21 22 23 24 25 26 27 28 29 30 31 32 33 34 35 36 37 38 39 40 41 42 43 44 45 46 47 48 49 50

000
ASUS43 KFSD 302310
RWRFSD

WEATHER ROUNDUP FOR SE SOUTH DAKOTA/SW MINNESOTA/NW IOWA
NATIONAL WEATHER SERVICE SIOUX FALLS SD
600 PM CDT SUN AUG 30 2015

NOTE: "FAIR" INDICATES FEW OR NO CLOUDS BELOW 12,000 FEET WITH NO
SIGNIFICANT WEATHER AND OR OBSTRUCTIONS TO VISIBILITY.


SDZ038>040-050-052>070-310000-
SOUTHEAST SOUTH DAKOTA

CITY           SKY/WX    TMP DP  RH WIND       PRES   REMARKS
BROOKINGS      SUNNY     75  66  73 S16       29.90S
CHAMBERLAIN    MOSUNNY   86  66  51 SE9       29.77S
HURON          MOSUNNY   82  69  64 S17G29    29.78F
MADISON        FAIR      73  68  83 S17G23    29.90S
MITCHELL       SUNNY     82  68  62 S21G29    29.82F
SIOUX FALLS    CLOUDY    74  64  71 S15       29.91S
WINNER         FAIR      94  52  24 S18G25    29.76F
YANKTON        SUNNY     79  66  65 S14G20    29.88F
$$

MNZ071-072-080-081-089-090-097-098-310000-
SOUTHWEST MINNESOTA

CITY           SKY/WX    TMP DP  RH WIND       PRES   REMARKS
FAIRMONT       SUNNY     73  63  68 S12       29.95F
JACKSON        SUNNY     75  68  78 S12G17    29.96F
LUVERNE        SUNNY     73  63  68 S13       29.93F
MARSHALL       SUNNY     79  61  53 S16G22    29.90S
MONTEVIDEO     SUNNY     82  68  61 S12G17    29.87F
PIPESTONE      SUNNY     73  63  68 S13       29.92F
REDWOOD FALLS  SUNNY     79  64  60 S10       29.89F
TRACY          SUNNY     78  67  68 S14       29.90F
WINDOM         SUNNY     77  66  69 S10G16    29.93F
WORTHINGTON    SUNNY     73  64  73 S13       29.94F
$$

IAZ001>003-012>014-020>022-031-032-NEZ013-014-SDZ071-310000-
NORTHWEST IOWA

CITY           SKY/WX    TMP DP  RH WIND       PRES   REMARKS
CHEROKEE       SUNNY     72  67  85 S8        29.96F
DENISON        SUNNY     73  68  83 S7G14     29.96F
ESTHERVILLE    SUNNY     73  67  81 S13       29.96F
LE MARS        SUNNY     72  66  83 S15       29.95F
ORANGE CITY    SUNNY     72  64  78 S12G17    29.95F
SHELDON        SUNNY     72  66  83 S9G15     29.94F
SIOUX CITY     NOT AVBL
SPENCER        HAZE      74  65  73 S10       29.96F VSB 1/2
STORM LAKE     SUNNY     70  66  88 S10       29.99S
$$

ABBREVIATIONS USED IN REMARKS
   TC - TEMPERATURE IN CELSIUS
  WCI - WIND CHILL INDEX
   HX - HEAT INDEX
  VSB - VISIBILITY




USA.gov is the U.S. government's official web portal to all federal, state and local government web resources and services.